EDT,Max TemperatureF,Mean TemperatureF,Min TemperatureF,Max Dew PointF,MeanDew PointF,Min DewpointF,Max Humidity, Mean Humidity, Min Humidity, Max Sea Level PressureIn, Mean Sea Level PressureIn, Min Sea Level PressureIn, Max VisibilityMiles, Mean VisibilityMiles, Min VisibilityMiles, Max Wind SpeedMPH, Mean Wind SpeedMPH, Max Gust SpeedMPH,PrecipitationIn, CloudCover, Events, WindDirDegrees
2011-9-1,90,83,76,79,77,73,94,81,68,30.08,30.00,29.96,10,9,2,20,8,26,0.42,3,Rain-Thunderstorm,96
2011-9-2,90,86,82,80,78,76,94,79,64,29.98,29.94,29.91,10,10,10,13,7,18,0.00,2,,105
2011-9-3,89,86,83,79,77,75,80,74,68,29.93,29.90,29.87,10,10,10,15,9,18,0.00,1,,139
2011-9-4,89,87,84,78,76,74,82,75,68,29.94,29.90,29.86,10,10,10,16,10,18,0.00,0,,172
2011-9-5,89,85,81,79,76,72,80,75,70,29.92,29.89,29.86,10,10,10,32,13,40,T,1,Rain-Thunderstorm,173
2011-9-6,89,86,83,79,77,76,85,77,68,29.98,29.91,29.86,10,10,10,18,11,24,0.00,1,,175
2011-9-7,89,83,77,77,75,72,85,77,68,29.99,29.95,29.88,10,9,1,30,5,46,0.45,1,Rain-Thunderstorm,203
2011-9-8,88,85,82,77,75,74,85,75,65,29.98,29.94,29.91,10,10,10,10,5,14,0.00,0,,189
2011-9-9,89,87,85,78,76,74,79,74,68,29.99,29.95,29.91,10,10,10,12,7,17,0.00,0,,156
2011-9-10,90,86,82,79,76,73,82,75,68,30.02,29.97,29.92,10,10,7,23,4,30,0.12,1,Rain,119
2011-9-11,91,88,84,80,77,75,82,75,68,30.06,30.02,29.98,10,10,10,20,9,23,T,1,Thunderstorm,76
2011-9-12,90,85,80,76,74,73,85,72,59,30.07,30.03,29.98,10,10,10,22,5,26,0.20,1,Rain-Thunderstorm,101
2011-9-13,92,86,80,79,75,72,94,73,52,30.01,29.95,29.91,10,10,10,14,4,17,0.00,0,,23
2011-9-14,90,85,79,76,74,73,79,69,59,29.96,29.92,29.88,10,10,4,18,4,22,0.07,2,Rain,66
2011-9-15,91,86,80,76,72,67,85,67,49,30.02,29.96,29.91,10,10,10,12,4,16,0.00,0,,30
2011-9-16,92,86,80,75,71,67,85,66,47,30.07,30.02,29.98,10,10,10,13,6,16,0.00,1,,67
2011-9-17,91,87,82,75,72,70,74,65,56,30.06,30.02,29.98,10,10,10,14,7,18,0.00,2,,86
2011-9-18,88,83,78,76,74,71,91,77,63,30.06,30.00,29.96,10,9,2,16,6,22,0.47,2,Rain-Thunderstorm,97
2011-9-19,89,86,83,76,74,73,74,69,63,30.01,29.96,29.90,10,10,10,16,10,20,T,0,,103
2011-9-20,89,87,84,77,75,74,80,74,68,29.96,29.93,29.89,10,10,10,21,13,26,0.00,1,,104
2011-9-21,89,86,83,78,76,75,80,74,68,30.27,30.09,29.90,10,10,10,17,12,21,T,2,Rain-Thunderstorm,114
2011-9-22,88,84,80,79,77,75,88,79,70,30.30,30.14,29.92,10,9,3,9,6,14,0.12,2,Rain-Thunderstorm,148
2011-9-23,88,86,83,77,76,75,79,74,68,30.27,30.05,29.91,10,10,10,10,5,13,0.00,2,,231
2011-9-24,89,86,82,77,75,73,80,72,63,30.25,30.10,29.92,10,10,10,14,5,16,0.00,2,,253
2011-9-25,88,83,77,77,75,71,75,70,65,30.26,30.11,29.90,10,10,4,16,8,21,0.37,3,Rain-Thunderstorm,165
2011-9-26,83,79,75,76,75,73,100,87,74,30.29,30.10,29.92,10,7,1,12,7,15,3.36,5,Rain,198
2011-9-27,87,81,74,77,75,73,100,83,65,30.23,30.12,29.92,10,9,2,8,3,10,1.47,4,Rain,81
2011-9-28,89,84,78,78,76,74,100,82,63,30.21,30.15,29.93,10,10,10,12,3,15,0.00,0,,2
2011-9-29,90,87,83,79,75,73,94,77,59,30.16,29.91,29.80,10,10,10,9,3,13,0.02,2,,16
2011-9-30,89,85,80,78,75,72,91,75,59,30.13,30.02,29.78,10,9,1,17,6,22,0.25,2,Rain,341